Location: Unspecified
(0.0000°N, 0.0000°E)
Time: 12:42:48
(UTC+00:00)

SSETI-EXPRESS DEB - Visible Passes

Search period start: 18 May 2026 00:00
Search period end: 28 May 2026 00:00
Orbit: 640 x 657 km, 98.3° (Epoch: 18 May)

Date Brightness Start Highest point End Pass type
(mag) Time Alt. Az. Time Alt. Az. Time Alt. Az.
18 May ? 03:24:41 18° NNE 03:24:41 18° NNE 03:26:12 10° NNE visible
19 May ? 03:51:02 24° N 03:51:02 24° N 03:52:53 10° N visible
20 May ? 04:17:23 20° NNW 04:17:23 20° NNW 04:18:53 10° NNW visible
21 May ? 03:05:58 13° NE 03:05:58 13° NE 03:06:53 10° NE visible
21 May ? 04:43:43 12° NW 04:43:43 12° NW 04:44:06 10° NW visible
22 May ? 03:32:19 23° NNE 03:32:19 23° NNE 03:34:21 10° NNE visible
23 May ? 03:58:40 28° N 03:58:40 28° N 04:00:49 10° N visible
24 May ? 04:25:02 20° NW 04:25:02 20° NW 04:26:37 10° NNW visible
25 May ? 03:13:38 17° NE 03:13:38 17° NE 03:15:18 10° NNE visible
25 May ? 04:51:23 11° WNW 04:51:23 11° WNW 04:51:32 10° WNW visible
26 May ? 03:39:59 28° NNE 03:39:59 28° NNE 03:42:23 10° N visible
27 May ? 04:06:21 30° NNW 04:06:21 30° NNW 04:08:39 10° NNW visible
